STARTDAY,ENDDAY,SO2,ACSO4,ACCA,ACMG,ACHNO3,ACNO3,ACNH4,ACNA,ACK,ACCL,SO2FLUX,HNO3FLUX,NO3FLUX,SO4FLUX,NH4FLUX,TOTAL_S,TOTAL_N,CAFLUX,MGFLUX,NAFLUX,KFLUX,CLFLUX,VDSO2,VDHNO3,VDTSP
12/29/1987 12:32,1/5/1988 14:31,29.532812,3.758538419,0.210804981,0.062097591,1.66076363,1.797561853,1.405366539,0.490244142,0.081707357,0.261463542,6.869085467,3.081548646,0.123589426,0.166805646,0.332137175,7.035891113,3.537275247,0.022422118,0.010891874,0.090907826,0.008909024,0.031439935,0.243485,1.91065,0.069665
1/5/1988 14:34,1/12/1988 13:10,12.34212194,5.0020008,0.215086034,0.056689342,3.083972932,1.91743364,1.684006936,0.566893424,0.100040016,0.066693344,2.861780137,5.796926447,0.137284311,0.231173796,0.414452582,3.092953933,6.348663339,0.023823802,0.010354577,0.10946956,0.011359149,0.008351338,0.24766,1.97487,0.07402
1/12/1988 13:21,1/19/1988 13:48,25.07296434,6.59608852,0.323208338,0.105537416,3.804249644,3.314534481,2.803337621,0.75855018,0.13192177,0.280333762,5.878251093,7.230232436,0.239949101,0.308231728,0.697593454,6.186482821,8.167774991,0.036197405,0.019490969,0.148105875,0.015145532,0.035493188,0.24766,1.97487,0.07402
1/19/1988 14:05,1/26/1988 16:41,24.53981383,3.907776475,0.170965221,0.055360167,2.631069161,0.911814511,1.432851374,0.179106422,0.048847206,0.032564804,5.826687487,5.06434783,0.066851491,0.184939037,0.3611072,6.011626524,5.49230652,0.019391467,0.010354577,0.035416622,0.005679574,0.004175669,0.24766,1.97487,0.07402
1/26/1988 16:47,2/2/1988 14:34,49.75421425,5.936977793,0.239458104,0.083117689,3.760992296,2.691429933,2.374791117,0.534328001,0.118739556,0.435378372,11.74909198,7.580945088,0.230045319,0.32755937,0.697727988,12.07665135,8.508718395,0.031663445,0.018124005,0.123177005,0.016095231,0.065083394,0.253465,2.12817,0.0888
2/2/1988 14:44,2/9/1988 14:56,19.38333616,3.468093539,0.14863258,0.057801559,2.567908862,1.205575373,1.0073986,0.445897741,0.066058925,0.165147311,4.750314387,5.629814466,0.121947459,0.226445383,0.350275802,4.97675977,6.102037727,0.023258982,0.014915861,0.12164802,0.010596962,0.029216145,0.25927,2.28147,0.10358
2/9/1988 15:01,2/16/1988 14:33,18.68647251,4.642525534,0.14756599,0.056373524,4.027270846,0.69637883,1.359596764,0.39793076,0.066321793,0.033160897,4.561381428,8.794285342,0.070161552,0.301927177,0.470862554,4.863308605,9.335309447,0.023000549,0.014489694,0.108131573,0.010596962,0.005843229,0.25927,2.28147,0.10358
2/16/1988 14:38,2/23/1988 14:50,29.5155346,4.954419342,0.270841591,0.080922183,4.649089901,0.42938301,,0.280750429,0.049544193,0.016514731,7.233433271,10.19253992,0.043433342,0.323493404,,7.556926675,,0.042383034,0.020882205,0.076593198,0.007947721,0.002921615,0.25927,2.28147,0.10358
2/23/1988 15:02,3/1/1988 15:47,22.17427551,6.419753086,0.291358025,0.080658436,5.738052339,1.794238683,2.189300412,0.395061728,0.082304527,0.098765432,5.900708932,13.58113791,0.205677293,0.475027484,0.862664442,6.375736415,14.64947965,0.051669162,0.023587739,0.122141283,0.014962402,0.019800863,0.280605,2.455015,0.117
3/1/1988 15:53,3/8/1988 14:57,21.84330097,4.322958234,0.295956371,0.073157755,3.903339613,1.147246608,1.496408619,0.382415536,0.083133812,0.166267624,6.192190298,9.793045314,0.145133369,0.353009028,0.650715422,6.545199326,10.5888941,0.057921058,0.023610286,0.130478034,0.016678603,0.036786732,0.30194,2.62856,0.13042
3/8/1988 15:02,3/15/1988 15:33,12.86129954,4.450598358,0.273629381,0.06923153,3.316931456,0.642864207,1.3846306,0.247255464,0.082418488,0.016483698,3.677595253,8.39403884,0.082031904,0.366586298,0.607334394,4.044181551,9.083405138,0.054016268,0.022537091,0.08509437,0.016678603,0.003678673,0.30194,2.62856,0.13042
3/15/1988 15:35,3/22/1988 15:10,14.03830739,3.315100282,0.261892922,0.049726504,2.392057894,0.745897563,1.259738107,0.198906017,0.066302006,0.049726504,3.991919634,6.019967249,0.094652197,0.271545406,0.549493023,4.26346504,6.664112469,0.051413074,0.016097922,0.068075496,0.013342882,0.01103602,0.30194,2.62856,0.13042
3/22/1988 15:12,3/29/1988 15:48,9.119318275,4.777909582,0.220772374,0.092263082,3.315292008,0.626070911,1.350995123,0.444839858,0.148279953,0.01647555,2.608892359,8.39403884,0.079928522,0.393740839,0.592874051,3.002633198,9.066841413,0.043603493,0.030049455,0.153169866,0.030021485,0.003678673,0.30194,2.62856,0.13042
3/29/1988 16:05,4/5/1988 14:38,13.30526124,6.07902167,0.205751503,0.076377452,5.782007045,0.420855346,2.026340557,0.187046821,0.046761705,0.007793618,4.313254372,15.46638157,0.059225196,0.552206643,0.980204063,4.865461015,16.50581083,0.044793497,0.027420111,0.070992974,0.010436034,0.001918164,0.346355,2.8112,0.14553
4/5/1988 14:43,4/12/1988 14:51,3.284100074,3.336027573,0.088960735,0.028594522,1.759760245,0.190630147,0.873721507,0.095315074,0.031771691,0.015885846,1.212570469,5.060688833,0.029893419,0.337682006,0.470963706,1.550252475,5.561545958,0.021581453,0.011439242,0.040312245,0.00790125,0.004356797,0.39077,2.99384,0.16064
4/12/1988 14:55,4/19/1988 13:25,7.405213255,3.862383284,0.162541963,0.102996888,2.518729423,1.046062139,1.126528458,0.563264229,0.048279791,0.016093264,2.707625459,7.172954277,0.162443339,0.387163201,0.601335711,3.09478866,7.936733327,0.039048848,0.04080364,0.235910885,0.011889984,0.004370806,0.39077,2.99384,0.16064
4/19/1988 13:29,4/26/1988 13:52,7.358225223,2.758472974,0.157395223,0.040565779,2.391137121,0.373205167,0.811315581,0.081131558,0.048678935,0.081131558,2.720877321,6.886616418,0.058610704,0.279635497,0.43797519,3.000512818,7.383202311,0.03824011,0.016252475,0.034364536,0.012123885,0.022283947,0.39077,2.99384,0.16064
4/26/1988 14:16,5/3/1988 14:57,4.941766154,3.622830419,0.093864243,0.02964134,3.330389807,0.131739288,1.103316537,0.065869644,0.032934822,0.032934822,2.002771705,9.459341166,0.020352585,0.361282189,0.585915247,2.364053894,10.065609,0.022433795,0.011682411,0.027446121,0.008069211,0.008898824,0.427525,2.94727,0.157745
5/3/1988 15:01,5/10/1988 15:02,5.071627156,4.959825414,0.170287339,0.071090831,3.881269346,0.562113547,1.355685613,0.247991271,0.033065503,0.033065503,2.223285447,10.80693861,0.084911031,0.48361608,0.703929971,2.706901527,11.59577961,0.039794286,0.027395803,0.101034069,0.007921121,0.008735509,0.46428,2.9007,0.15485
5/10/1988 15:12,5/17/1988 14:35,6.086846202,1.659530685,0.086295596,0.029871552,5.515053212,0.331906137,0.514454512,0.116167148,0.033190614,0.033190614,2.658276078,15.29813387,0.049947665,0.16120536,0.266119867,2.819481438,15.6142014,0.020090319,0.011468011,0.047149232,0.007921121,0.008735509,0.46428,2.9007,0.15485
5/17/1988 14:35,5/24/1988 14:39,8.707377152,9.090308079,0.090903081,0.039666799,5.627006115,0.082639164,2.611397594,0.082639164,0.066111332,0.082639164,3.818251093,15.67240014,0.012486916,0.886629481,1.356352871,4.704880574,17.04123993,0.021249376,0.015290681,0.033678023,0.015842243,0.021838773,0.46428,2.9007,0.15485
5/24/1988 14:41,5/31/1988 13:04,12.4695291,8.514474607,0.345587499,0.091822765,4.937388884,0.350596013,2.67120772,0.083475241,0.116865338,0.083475241,5.41321674,13.61393565,0.052445049,0.822147337,1.373521895,6.235364076,15.03990259,0.079974925,0.035041144,0.033678023,0.027723925,0.021838773,0.46428,2.9007,0.15485
5/31/1988 13:11,6/7/1988 15:25,5.114404883,1.468572548,0.182755695,0.034266693,1.459325716,0.261079564,0.489524183,0.065269891,0.065269891,0.032634946,2.336006663,3.932158971,0.038149243,0.13851689,0.245876829,2.474523552,4.216185043,0.041312575,0.012773668,0.025722745,0.01512507,0.008340056,0.47744,2.770515,0.14784
6/7/1988 15:35,6/14/1988 12:54,7.507580785,2.856470746,0.416708674,0.089054676,1.946715013,0.386463689,0.940955069,0.033605538,0.100816615,0.016802769,3.421840516,4.854572049,0.052239259,0.249236916,0.437207497,3.671077433,5.344018805,0.087140319,0.030709689,0.012251536,0.021611847,0.003972301,0.4906,2.64033,0.14083
6/14/1988 12:58,6/21/1988 10:30,25.84263716,17.85954981,,,4.092410689,0.101091791,4.63337377,0.134789055,0.08424316,0.008424316,11.7466167,10.17756772,0.013627633,1.554065477,2.147001103,13.30068218,12.33819645,,,0.049006145,0.018009873,0.001986151,0.4906,2.64033,0.14083
6/21/1988 10:34,6/28/1988 14:03,12.63879868,5.507499919,0.286713966,0.076133087,3.918043081,0.19438235,1.781838209,0.178183821,0.113389704,0.016198529,5.975452842,10.13498375,0.027255265,0.498473832,0.858800441,6.473926674,11.02103946,0.062192889,0.027233121,0.067383449,0.025213822,0.003972301,0.4906,2.64033,0.14083
6/28/1988 14:07,7/5/1988 15:48,5.021812529,4.092590774,0.122777723,0.060570344,3.17766673,0.196444357,1.195036506,0.081851816,0.294666536,0.081851816,2.298060587,7.851209527,0.026715308,0.359263609,0.558640227,2.657324196,8.436565061,0.025830838,0.021014112,0.030022049,0.063551077,0.019468028,0.479895,2.54868,0.13804
7/5/1988 15:52,7/12/1988 10:34,24.93437078,,0.455849211,0.158778939,3.730483073,0.170730042,6.487741583,0.187803046,0.153657038,0.085365021,10.69671143,8.519945339,0.021812792,,2.849215281,,11.39097341,0.090099177,0.051751697,0.064713566,0.031133306,0.019074549,0.46919,2.45703,0.13525
7/12/1988 10:42,7/19/1988 12:20,11.7678625,10.38986741,0.166567716,0.062669042,4.089554023,0.115442971,3.067484663,0.082459265,0.082459265,0.032983706,5.226247137,9.669147269,0.015268955,0.887045898,1.394615901,6.113293035,11.07903212,0.03408246,0.021145855,0.029415257,0.017296281,0.00762982,0.46919,2.45703,0.13525
7/19/1988 12:25,7/27/1988 10:09,6.053268027,8.345045678,0.083450457,0.04245725,2.826989081,0.161044741,2.898805341,0.043921293,0.087842586,0.007320216,3.028292734,7.529254021,0.023994071,0.802565336,1.48459112,3.83085807,9.037839212,0.019234656,0.016137626,0.017649154,0.020755537,0.001907455,0.46919,2.45703,0.13525
7/27/1988 10:13,8/2/1988 11:39,15.53952443,20.43700818,0.322790129,0.135610054,5.590397592,0.133700054,7.258002903,0.057300023,0.095500038,0.009550004,5.825099938,11.11221296,0.014637875,1.444302169,2.731454738,7.269402106,13.85830557,0.054672006,0.037876404,0.0169197,0.016581411,0.001828618,0.458655,2.392325,0.12966
8/2/1988 11:42,8/9/1988 16:35,13.715091,10.76512741,0.22172949,0.118898422,3.706695377,0.080336772,3.229538224,0.321347087,0.080336772,0.008033677,5.971201333,8.52169187,0.010004855,0.865385977,1.382506666,6.836587309,9.914203391,0.042718713,0.037774861,0.107934964,0.015866541,0.001749781,0.44812,2.32762,0.12407
8/9/1988 16:37,8/16/1988 13:59,31.70153668,22.172949,0.374588457,0.154538736,3.209401444,0.083988443,5.879191023,0.302358396,0.117583821,0.008398844,13.20195295,7.05761265,0.010004855,1.704939536,2.407349917,14.90689248,9.474967421,0.069030963,0.046963341,0.097141468,0.022213157,0.001749781,0.44812,2.32762,0.12407
8/16/1988 14:08,8/23/1988 15:59,8.397828964,2.780230923,0.183168155,0.052333759,3.47372074,0.179897295,0.703234881,0.098125797,0.065417198,0.00817715,3.592050802,7.845962999,0.02201068,0.219575546,0.295760133,3.811626348,8.163733812,0.03467026,0.016335075,0.032380489,0.012693232,0.001749781,0.44812,2.32762,0.12407
8/23/1988 16:02,8/30/1988 11:12,1.589419166,8.682328907,0.226421519,0.078311202,4.39457056,0.068096697,2.434456929,0.221314266,0.102145046,0.034048349,0.653100146,9.535285176,0.008003884,0.658726639,0.983574395,1.311826785,10.52686345,0.041170933,0.02348167,0.070157727,0.019039849,0.006999126,0.44812,2.32762,0.12407
8/30/1988 11:12,9/6/1988 15:25,10.21857361,6.129229975,0.148391884,0.046775702,3.704652073,0.096777315,2.048453176,0.048388658,0.06451821,0.008064776,4.269461795,8.215278698,0.011261207,0.460374817,0.81934689,4.729836612,9.045886794,0.026712824,0.013885517,0.015186102,0.01190598,0.001641257,0.43171,2.253855,0.116375
9/6/1988 15:29,9/13/1988 16:20,14.81066486,4.441812259,0.279669661,0.078965551,2.591461731,0.296120817,1.480604087,0.098706939,0.04935347,0.008225578,5.836508432,5.449968729,0.031549765,0.305479213,0.542246221,6.141987645,6.023764714,0.046096806,0.021463238,0.02836392,0.008339046,0.001532734,0.4153,2.18009,0.10868
9/13/1988 16:24,9/20/1988 16:02,7.624836949,6.462517399,0.185590243,0.059654007,2.206099425,0.298270034,2.220454696,0.13256446,0.06628223,0.008285279,2.98310431,4.606102603,0.031549765,0.441247751,0.807344373,3.424352061,5.444996741,0.030369661,0.016097429,0.03781856,0.011118727,0.001532734,0.4153,2.18009,0.10868
9/20/1988 16:06,9/27/1988 16:29,5.060583327,3.629285031,0.146821076,0.037942525,2.028618746,0.280444752,1.22075951,0.082483751,0.065987001,0.008248375,1.988736207,4.254491718,0.029797,0.248908988,0.445846892,2.237645195,4.73013561,0.024133034,0.010284468,0.0236366,0.011118727,0.001532734,0.4153,2.18009,0.10868
9/27/1988 16:29,10/4/1988 12:15,18.6638092,9.668227153,0.25273085,0.091593731,4.102660824,0.373159645,3.154895176,0.305312436,0.08480901,0.008480901,6.645089007,8.494703462,0.037787336,0.631964571,1.098163352,7.277053578,9.63065415,0.039592066,0.023661798,0.083384914,0.013619623,0.001501989,0.386865,2.21301,0.1065
10/4/1988 12:25,10/11/1988 15:45,8.649479506,3.404669261,0.128080415,0.050259403,1.581770732,0.291828794,1.199740597,0.097276265,0.032425422,0.032425422,2.98505101,3.477405516,0.030284058,0.228063162,0.427960506,3.213114172,3.935650081,0.020562076,0.013305575,0.027226023,0.005336334,0.005884975,0.35843,2.24593,0.10432
10/11/1988 15:54,10/18/1988 15:40,24.73342123,5.629511888,0.220213259,0.084442678,1.66587989,0.546393801,1.854427446,0.215246043,0.066229552,0.016557388,8.358142827,3.586074439,0.055520773,0.36924512,0.64772401,8.727387947,4.289319221,0.034617166,0.021889817,0.058989716,0.010672669,0.002942487,0.35843,2.24593,0.10432
10/18/1988 15:45,10/25/1988 15:24,7.734572836,2.319647414,0.119296153,0.041422275,0.589357281,0.314809292,0.795307685,0.132551281,0.03313782,0.06627564,2.611919634,1.267804094,0.031966506,0.152042108,0.277596004,2.763961742,1.577366604,0.01874012,0.010730302,0.036301364,0.005336334,0.011769949,0.35843,2.24593,0.10432
10/25/1988 15:28,11/1/1988 16:05,15.05088089,3.78900201,0.16638661,0.056011334,1.406348496,0.329478436,1.284965899,0.098843531,0.082369609,0.016473922,4.598185509,2.912861095,0.030529845,0.226629647,0.409279145,4.824815156,3.352670085,0.023851422,0.013240486,0.024702292,0.0121042,0.002669732,0.32241,2.15007,0.09465
11/1/1988 16:10,11/9/1988 13:28,13.01496122,3.961965135,0.121793743,0.057228385,1.998335259,0.425544403,1.261959265,0.278804954,0.05869578,0.02934789,3.965216531,4.439535436,0.039745569,0.238862932,0.405153479,4.204079464,4.884434483,0.017598154,0.01363596,0.070232108,0.008694051,0.004793953,0.28639,2.05421,0.08498
11/9/1988 13:32,11/15/1988 15:58,12.77683471,2.845435921,0.094847864,0.037939146,2.101361234,0.322482738,0.986417786,0.113817437,0.056908718,0.018969573,3.011179471,3.611263899,0.023299126,0.132701629,0.244976522,3.1438811,3.879539548,0.010601297,0.0069928,0.02217856,0.006520538,0.002396976,0.28639,2.05421,0.08498
11/15/1988 16:02,11/22/1988 15:05,5.322756619,2.327978982,0.103096212,0.039908211,0.980157078,0.266054741,0.665136852,0.166284213,0.033256843,0.049885264,1.43105559,1.921589965,0.02192859,0.123854854,0.188443479,1.554910444,2.131962033,0.013145609,0.00839136,0.036964267,0.004347025,0.007190929,0.28639,2.05421,0.08498
11/22/1988 15:19,11/30/1988 14:19,14.35390936,2.617801047,0.081442699,0.023269343,2.320494011,0.189063409,0.930773706,0.043630018,0.029086678,0.00727167,4.412421403,5.201545249,0.017816979,0.159241955,0.301509566,4.571663358,5.520871794,0.011873453,0.00559424,0.01108928,0.004347025,0.001198488,0.28639,2.05421,0.08498
11/30/1988 14:23,12/6/1988 15:48,29.04440694,3.05635148,0.156638013,0.05730659,1.514239546,0.496657116,1.184336199,0.095510984,0.076408787,0.038204394,6.238788257,2.453513017,0.031509929,0.125166567,0.258283209,6.363954824,2.743306155,0.015373977,0.009275252,0.016343139,0.007687861,0.004239134,0.26285,1.95032,0.075145
12/6/1988 15:52,12/13/1988 15:34,31.59183277,3.312794011,0.221957199,0.069568674,1.228864404,0.745378652,1.043530113,0.215331611,0.06625588,0.06625588,7.124990631,2.173920196,0.047398673,0.135980912,0.228099655,7.260971542,2.449418524,0.02183518,0.011285826,0.036930774,0.006681672,0.007368629,0.23931,1.84643,0.06531
12/13/1988 15:40,12/20/1988 16:18,33.94352224,3.953350465,0.209198129,0.070830863,2.64501311,0.82361468,1.367200369,0.362390459,0.065889174,0.18119523,7.697979388,4.705197137,0.052665193,0.163177094,0.300512243,7.861156482,5.058374573,0.020694536,0.011554536,0.062498233,0.006681672,0.020263729,0.23931,1.84643,0.06531
12/20/1988 16:22,12/27/1988 14:19,15.85086397,3.180342138,0.145626193,0.050215929,1.275845756,0.468681999,0.970841284,0.251079643,0.050215929,0.066954571,3.537582761,2.233479654,0.029492508,0.129181866,0.209996507,3.666764627,2.472968669,0.014176572,0.008061304,0.042612432,0.005011254,0.007368629,0.23931,1.84643,0.06531
12/27/1988 14:22,1/3/1989 12:46,28.83289785,3.004807692,0.11184562,0.055088141,2.103693814,0.901442308,0.984909188,0.300480769,0.050080128,0.066773504,6.564919321,3.821120322,0.060671173,0.130543549,0.22786155,6.69546287,4.109653045,0.011645596,0.009458733,0.054544695,0.005345414,0.007859984,0.243485,1.91065,0.069665
1/3/1989 12:52,1/10/1989 16:10,14.70697644,1.783745216,0.085944088,0.027566972,1.779838346,0.437828371,0.551339431,0.178374522,0.048647597,0.016215866,3.506325213,3.439934375,0.032231969,0.084763725,0.139518691,3.591088939,3.611685034,0.009788074,0.005177289,0.035416622,0.005679574,0.002087835,0.24766,1.97487,0.07402
1/10/1989 16:14,1/17/1989 16:21,25.01249058,3.800270976,0.155315423,0.056177919,1.477699303,0.247843759,1.140081293,0.214797925,0.066091669,0.016522917,5.85246929,2.802909491,0.017906649,0.177233243,0.283140873,6.029702533,3.103957012,0.01735998,0.010354577,0.041856008,0.007572766,0.002087835,0.24766,1.97487,0.07402
1/17/1989 16:25,1/24/1989 15:31,26.05153175,3.823392513,0.264312787,0.083117229,1.436007283,0.415586143,1.180264645,0.315845468,0.099740674,0.083117229,6.058723714,2.707355758,0.029844416,0.177233243,0.291347854,6.235956958,3.028548028,0.029364222,0.01522732,0.061174166,0.011359149,0.010439173,0.24766,1.97487,0.07402
1/24/1989 15:35,1/31/1989 15:47,33.37017532,4.789272031,0.211388559,0.075967763,2.299369373,1.205575373,1.701017307,0.297265161,0.214691505,0.049544193,7.811886321,4.363620457,0.087145693,0.223468003,0.422659563,8.035354324,4.873425714,0.023639122,0.014009134,0.057954473,0.024611489,0.006263504,0.24766,1.97487,0.07402
1/31/1989 16:00,2/7/1989 15:36,39.3475626,4.143463272,0.127618669,0.051378945,2.577101853,0.596658711,1.39220366,0.348050915,0.066295412,0.049721559,9.393456173,5.251527415,0.051557216,0.231111333,0.413520121,9.624567506,5.716604752,0.01705988,0.011326065,0.081114339,0.009084864,0.007514174,0.253465,2.12817,0.0888
2/7/1989 15:40,2/14/1989 15:42,35.59318881,4.309630366,0.205536218,0.069617106,3.183795366,0.314934527,1.210011603,0.34808553,0.099453009,0.033151003,8.690916094,6.954476693,0.03173975,0.28036095,0.419182517,8.971277044,7.40539896,0.032045709,0.017899033,0.094615127,0.015895442,0.005843229,0.25927,2.28147,0.10358
2/14/1989 15:45,2/21/1989 14:22,21.90229558,4.668067087,0.231736188,0.051682171,3.134494076,0.883598413,1.650495149,0.18338835,0.100030009,0.533493381,5.317113263,6.807292001,0.088537196,0.301927177,0.5684804,5.61904044,7.464309598,0.035922206,0.013211191,0.049560304,0.015895442,0.093491665,0.25927,2.28147,0.10358
2/21/1989 14:26,2/28/1989 14:22,18.75227072,4.796877068,0.176988223,0.04466058,2.975435393,0.496228662,1.521767897,0.231573376,0.066163822,0.016540955,4.588371851,6.512922617,0.050115394,0.312710291,0.528284816,4.901082141,7.091322828,0.027652345,0.011506521,0.063076751,0.010596962,0.002921615,0.25927,2.28147,0.10358
2/28/1989 14:36,3/7/1989 15:55,20.13075041,3.937395413,0.164058142,0.073826164,2.634338286,0.705450012,1.082783739,0.524986055,0.213275585,0.065623257,5.374903186,6.256034374,0.081138749,0.292324605,0.428089122,5.667227791,6.765262245,0.029191617,0.021662209,0.162855044,0.038902246,0.013200575,0.280605,2.455015,0.117
3/7/1989 15:59,3/14/1989 15:15,17.83028664,4.151720473,0.219210841,0.10130198,2.784766005,1.129267969,1.129267969,0.647668394,0.08303441,0.099641291,5.060622528,6.995032367,0.143029986,0.339431758,0.491651652,5.400054285,7.629714005,0.042952695,0.032732442,0.221245363,0.016678603,0.022072039,0.30194,2.62856,0.13042
3/14/1989 15:19,3/21/1989 15:15,21.39965012,5.789334392,0.224956994,0.071126108,4.253023471,0.264655287,1.786423184,0.198491465,0.049622866,0.008270478,6.097892984,10.7257163,0.033654114,0.475204461,0.780858507,6.573097444,11.54022892,0.044254291,0.023073689,0.068075496,0.010007162,0.001839337,0.30194,2.62856,0.13042
3/21/1989 15:20,3/28/1989 15:43,16.17186411,6.103797552,0.204559702,0.064337326,4.677558927,0.478405754,1.913623016,0.197961002,0.04949025,0.008248375,4.620568395,11.82796382,0.060998082,0.502359001,0.838699878,5.122927396,12.72766178,0.040349501,0.020927299,0.068075496,0.010007162,0.001839337,0.30194,2.62856,0.13042
3/28/1989 15:52,4/4/1989 13:59,7.025369854,4.682117655,0.090297983,0.038460252,3.126934483,0.200662185,0.13377479,0.100331093,0.033443698,0.008360924,2.271534978,8.342523843,0.028164871,0.424207975,0.064542668,2.695742953,8.435231382,0.019607335,0.013771611,0.037981241,0.007444371,0.002052436,0.346355,2.8112,0.14553
4/5/1989 12:36,4/11/1989 15:09,6.825740736,4.359528413,0.102354145,0.028431707,2.446425894,0.303271542,1.345767467,0.037908943,0.037908943,0.009477236,2.196708307,6.132254872,0.041452208,0.384635885,0.632290183,2.581344192,6.805997263,0.021643114,0.00991401,0.013974911,0.0082173,0.002265535,0.39077,2.99384,0.16064
4/11/1989 15:15,4/19/1989 14:50,14.31020454,5.9446136,0.147890387,0.052196607,5.319412181,0.101493403,1.754385965,0.05799623,0.115992461,0.007249529,6.020607953,17.43105519,0.018135341,0.685655274,1.077564959,6.706263227,18.52675549,0.040881437,0.023793623,0.027949823,0.032869201,0.002265535,0.39077,2.99384,0.16064
4/19/1989 15:00,4/25/1989 13:10,3.858767554,2.394349336,0.423001716,0.07183048,1.236951782,0.299293667,0.857975179,0.039905822,0.079811645,0.009976456,1.179713721,2.945413758,0.038861445,0.200679592,0.382936308,1.380393313,3.36721151,0.084969262,0.023793623,0.013974911,0.0164346,0.002265535,0.39077,2.99384,0.16064
4/25/1989 13:15,5/2/1989 13:05,4.194181572,3.972194638,0.359152599,0.061238001,2.270752051,0.413770275,0.959947037,0.049652433,0.066203244,0.008275406,1.69122944,6.417140992,0.063601828,0.394126024,0.507210214,2.085355464,6.987953034,0.085405851,0.024013845,0.020584591,0.016138421,0.002224706,0.427525,2.94727,0.157745
5/2/1989 13:10,5/9/1989 10:58,12.17822021,6.031363088,0.123978019,0.050261359,3.762893391,0.251306795,1.574855917,0.050261359,0.100522718,0.008376893,5.268219863,10.33910577,0.037460749,0.580339296,0.806944113,5.848559159,11.18351063,0.02859007,0.019113351,0.020206814,0.023763364,0.002183877,0.46428,2.9007,0.15485
5/9/1989 11:02,5/16/1989 15:14,6.024163233,8.226867983,0.108078462,0.040327784,5.393577427,0.12904891,2.580978191,0.048393341,0.096786682,0.008065557,2.70660837,15.39170044,0.019979066,0.822147337,1.373521895,3.528755706,16.7852014,0.025885604,0.015927793,0.020206814,0.023763364,0.002183877,0.46428,2.9007,0.15485
5/16/1989 15:17,5/23/1989 19:14,10.66534395,5.654098414,0.319860425,0.077541921,4.596952518,0.177700236,1.809311492,0.080772835,0.113081968,0.008077283,4.784896939,13.09931952,0.027471216,0.56421876,0.961465327,5.3491157,14.08825606,0.076497755,0.030581362,0.033678023,0.027723925,0.002183877,0.46428,2.9007,0.15485
5/23/1989 18:30,5/30/1989 16:56,9.238035616,5.173910141,0.170238334,0.050070098,4.325278095,0.116830229,1.568863075,0.100140196,0.083450164,0.008345016,4.011580262,11.92973742,0.017481683,0.499736616,0.806944113,4.511316879,12.75416322,0.039407934,0.019113351,0.040413628,0.019802803,0.002183877,0.46428,2.9007,0.15485
5/30/1989 16:58,6/6/1989 12:39,12.67521729,9.673149374,0.195160031,0.062790619,4.070255849,0.118793063,3.020737875,0.084852188,0.101822625,0.008485219,5.566654175,10.54533542,0.016690294,0.877273636,1.458869184,6.44392781,12.0208949,0.042419162,0.022505986,0.032153432,0.022687606,0.002085014,0.47744,2.770515,0.14784